Time,TemperatureF,DewpointF,PressureIn,WindDirection,WindDirectionDegrees,WindSpeedMPH,WindSpeedGustMPH,Humidity,HourlyPrecipIn,Conditions,Clouds,dailyrainin,SoftwareType,DateUTC
2013-11-07 06:05:00,59.4,51.0,29.87,SSW,194,0.0,-999.0,75,-99.99,,,0.00,weatherlink.com 1.10,2013-11-07 11:05:00,
2013-11-07 06:15:00,59.5,51.0,29.88,SSW,194,2.0,-999.0,74,-99.99,,,0.00,weatherlink.com 1.10,2013-11-07 11:15:00,
2013-11-07 06:30:00,59.6,51.0,29.88,SSW,193,0.0,-999.0,74,-99.99,,,0.00,weatherlink.com 1.10,2013-11-07 11:30:00,
2013-11-07 06:45:00,59.5,51.0,29.87,SSW,200,2.0,-999.0,74,-99.99,,,0.00,weatherlink.com 1.10,2013-11-07 11:45:00,
2013-11-07 07:00:00,59.6,51.0,29.87,SW,227,0.0,-999.0,74,-99.99,,,0.00,weatherlink.com 1.10,2013-11-07 12:00:00,
2013-11-07 07:15:00,59.5,52.0,29.87,South,174,0.0,-999.0,75,-99.99,,,0.00,weatherlink.com 1.10,2013-11-07 12:15:00,
2013-11-07 07:30:00,59.5,52.0,29.86,South,184,0.0,-999.0,75,-99.99,,,0.00,weatherlink.com 1.10,2013-11-07 12:30:00,
2013-11-07 07:45:00,59.6,52.0,29.86,SSW,197,0.0,-999.0,75,-99.99,,,0.00,weatherlink.com 1.10,2013-11-07 12:45:00,
2013-11-07 08:00:00,59.7,52.0,29.86,SSW,213,0.0,-999.0,75,-99.99,,,0.00,weatherlink.com 1.10,2013-11-07 13:00:00,
2013-11-07 08:15:00,59.9,52.0,29.86,South,187,0.0,-999.0,75,-99.99,,,0.00,weatherlink.com 1.10,2013-11-07 13:15:00,
2013-11-07 08:30:00,60.1,52.0,29.86,SSE,160,0.0,-999.0,75,-99.99,,,0.00,weatherlink.com 1.10,2013-11-07 13:30:00,
2013-11-07 08:45:00,60.5,53.0,29.86,SSW,197,0.0,-999.0,76,-99.99,,,0.00,weatherlink.com 1.10,2013-11-07 13:45:00,
2013-11-07 09:01:00,60.9,53.0,29.86,South,183,1.0,-999.0,76,-99.99,,,0.00,weatherlink.com 1.10,2013-11-07 14:01:00,
2013-11-07 09:16:00,61.0,54.0,29.85,South,179,0.0,-999.0,77,-99.99,,,0.00,weatherlink.com 1.10,2013-11-07 14:16:00,
2013-11-07 09:31:00,60.9,54.0,29.84,South,180,2.0,-999.0,77,-99.99,,,0.00,weatherlink.com 1.10,2013-11-07 14:31:00,
2013-11-07 09:46:00,60.7,53.0,29.84,South,188,0.0,-999.0,77,-99.99,,,0.00,weatherlink.com 1.10,2013-11-07 14:46:00,
2013-11-07 10:01:00,59.9,52.0,29.84,SSW,194,0.0,-999.0,76,-99.99,,,0.01,weatherlink.com 1.10,2013-11-07 15:01:00,
2013-11-07 10:16:00,59.1,51.0,29.84,South,182,0.0,-999.0,74,-99.99,,,0.01,weatherlink.com 1.10,2013-11-07 15:16:00,
2013-11-07 10:31:00,58.7,50.0,29.83,SSW,199,0.0,-999.0,73,-99.99,,,0.01,weatherlink.com 1.10,2013-11-07 15:31:00,
2013-11-07 10:46:00,58.6,50.0,29.82,SSW,199,0.0,-999.0,72,-99.99,,,0.01,weatherlink.com 1.10,2013-11-07 15:46:00,
2013-11-07 11:01:00,58.5,49.0,29.80,SSE,165,0.0,-999.0,72,-99.99,,,0.01,weatherlink.com 1.10,2013-11-07 16:01:00,
2013-11-07 11:16:00,58.2,49.0,29.79,SSW,206,0.0,-999.0,72,-99.99,,,0.01,weatherlink.com 1.10,2013-11-07 16:16:00,
2013-11-07 11:31:00,58.1,49.0,29.81,SSW,206,0.0,-999.0,71,-99.99,,,0.01,weatherlink.com 1.10,2013-11-07 16:31:00,
2013-11-07 11:47:00,57.9,48.0,29.79,SSW,206,0.0,-999.0,70,-99.99,,,0.01,weatherlink.com 1.10,2013-11-07 16:47:00,
2013-11-07 12:02:00,57.8,48.0,29.77,SSW,206,0.0,-999.0,70,-99.99,,,0.01,weatherlink.com 1.10,2013-11-07 17:02:00,
2013-11-07 12:17:00,57.8,48.0,29.76,SSW,206,0.0,-999.0,70,-99.99,,,0.01,weatherlink.com 1.10,2013-11-07 17:17:00,
2013-11-07 12:32:00,57.9,48.0,29.75,SSW,206,0.0,-999.0,70,-99.99,,,0.01,weatherlink.com 1.10,2013-11-07 17:32:00,
2013-11-07 12:47:00,58.2,48.0,29.76,SSW,206,0.0,-999.0,69,-99.99,,,0.01,weatherlink.com 1.10,2013-11-07 17:47:00,
2013-11-07 13:02:00,58.3,48.0,29.75,SSW,206,0.0,-999.0,69,-99.99,,,0.01,weatherlink.com 1.10,2013-11-07 18:02:00,
2013-11-07 13:17:00,58.1,48.0,29.77,SSW,206,0.0,-999.0,69,-99.99,,,0.01,weatherlink.com 1.10,2013-11-07 18:17:00,
2013-11-07 13:32:00,57.2,50.0,29.78,NNW,331,8.0,-999.0,76,-99.99,,,0.01,weatherlink.com 1.10,2013-11-07 18:32:00,
2013-11-07 13:47:00,55.3,49.0,29.79,NW,321,5.0,-999.0,78,-99.99,,,0.01,weatherlink.com 1.10,2013-11-07 18:47:00,
2013-11-07 14:17:00,53.6,47.0,29.79,NNW,327,0.0,-999.0,77,-99.99,,,0.01,weatherlink.com 1.10,2013-11-07 19:17:00,
2013-11-07 14:32:00,53.2,46.0,29.78,NNW,327,0.0,-999.0,76,-99.99,,,0.01,weatherlink.com 1.10,2013-11-07 19:32:00,
2013-11-07 14:48:00,52.9,46.0,29.80,NW,319,2.0,-999.0,77,-99.99,,,0.01,weatherlink.com 1.10,2013-11-07 19:48:00,
2013-11-07 15:03:00,52.5,45.0,29.80,NW,321,2.0,-999.0,77,-99.99,,,0.01,weatherlink.com 1.10,2013-11-07 20:03:00,
2013-11-07 15:18:00,52.1,45.0,29.79,NNW,331,6.0,-999.0,77,-99.99,,,0.01,weatherlink.com 1.10,2013-11-07 20:18:00,
2013-11-07 15:33:00,51.6,45.0,29.79,NNW,329,0.0,-999.0,77,-99.99,,,0.01,weatherlink.com 1.10,2013-11-07 20:33:00,
2013-11-07 15:48:00,50.8,44.0,29.80,NW,321,2.0,-999.0,78,-99.99,,,0.01,weatherlink.com 1.10,2013-11-07 20:48:00,
2013-11-07 16:03:00,50.2,44.0,29.80,NW,308,1.0,-999.0,78,-99.99,,,0.01,weatherlink.com 1.10,2013-11-07 21:03:00,
2013-11-07 16:18:00,49.6,43.0,29.81,NW,313,4.0,-999.0,78,-99.99,,,0.01,weatherlink.com 1.10,2013-11-07 21:18:00,
2013-11-07 16:33:00,49.3,43.0,29.82,NW,313,5.0,-999.0,78,-99.99,,,0.01,weatherlink.com 1.10,2013-11-07 21:33:00,
2013-11-07 16:48:00,49.0,43.0,29.83,NW,321,0.0,-999.0,79,-99.99,,,0.01,weatherlink.com 1.10,2013-11-07 21:48:00,
2013-11-07 17:03:00,48.6,42.0,29.84,North,349,0.0,-999.0,78,-99.99,,,0.01,weatherlink.com 1.10,2013-11-07 22:03:00,
2013-11-07 17:19:00,48.2,41.0,29.84,NW,312,5.0,-999.0,77,-99.99,,,0.01,weatherlink.com 1.10,2013-11-07 22:19:00,
2013-11-07 17:34:00,48.1,41.0,29.85,NW,313,5.0,-999.0,77,-99.99,,,0.01,weatherlink.com 1.10,2013-11-07 22:34:00,
2013-11-07 17:49:00,48.2,41.0,29.86,NW,316,1.0,-999.0,75,-99.99,,,0.01,weatherlink.com 1.10,2013-11-07 22:49:00,
2013-11-07 18:04:00,48.0,41.0,29.87,NNW,327,0.0,-999.0,76,-99.99,,,0.01,weatherlink.com 1.10,2013-11-07 23:04:00,
2013-11-07 18:19:00,47.5,40.0,29.87,NNW,342,0.0,-999.0,76,-99.99,,,0.01,weatherlink.com 1.10,2013-11-07 23:19:00,
2013-11-07 18:34:00,47.1,40.0,29.88,North,355,1.0,-999.0,76,-99.99,,,0.01,weatherlink.com 1.10,2013-11-07 23:34:00,
2013-11-07 18:49:00,46.8,39.0,29.88,NW,321,4.0,-999.0,75,-99.99,,,0.01,weatherlink.com 1.10,2013-11-07 23:49:00,
2013-11-07 19:04:00,46.8,39.0,29.88,NNW,327,0.0,-999.0,75,-99.99,,,0.01,weatherlink.com 1.10,2013-11-08 00:04:00,
2013-11-07 19:19:00,46.4,39.0,29.88,NW,326,2.0,-999.0,74,-99.99,,,0.01,weatherlink.com 1.10,2013-11-08 00:19:00,
2013-11-07 19:34:00,46.1,38.0,29.90,NW,319,11.0,-999.0,74,-99.99,,,0.01,weatherlink.com 1.10,2013-11-08 00:34:00,
2013-11-07 19:49:00,45.9,37.0,29.90,NNW,342,0.0,-999.0,71,-99.99,,,0.01,weatherlink.com 1.10,2013-11-08 00:49:00,
2013-11-07 20:04:00,45.5,35.0,29.91,NNW,329,5.0,-999.0,67,-99.99,,,0.01,weatherlink.com 1.10,2013-11-08 01:04:00,
2013-11-07 20:20:00,45.1,33.0,29.92,WNW,303,11.0,-999.0,64,-99.99,,,0.01,weatherlink.com 1.10,2013-11-08 01:20:00,
2013-11-07 20:35:00,44.7,32.0,29.91,NW,317,4.0,-999.0,61,-99.99,,,0.01,weatherlink.com 1.10,2013-11-08 01:35:00,
2013-11-07 20:50:00,44.6,32.0,29.91,NNW,341,5.0,-999.0,61,-99.99,,,0.01,weatherlink.com 1.10,2013-11-08 01:50:00,
2013-11-07 21:05:00,44.3,31.0,29.92,NNW,335,7.0,-999.0,61,-99.99,,,0.01,weatherlink.com 1.10,2013-11-08 02:05:00,
2013-11-07 21:20:00,44.3,30.0,29.92,NNE,15,4.0,-999.0,58,-99.99,,,0.01,weatherlink.com 1.10,2013-11-08 02:20:00,
2013-11-07 21:35:00,44.5,30.0,29.92,NW,308,2.0,-999.0,58,-99.99,,,0.01,weatherlink.com 1.10,2013-11-08 02:35:00,
2013-11-07 21:50:00,44.4,30.0,29.91,NNW,343,2.0,-999.0,57,-99.99,,,0.01,weatherlink.com 1.10,2013-11-08 02:50:00,
2013-11-07 22:05:00,44.3,29.0,29.91,NNW,344,2.0,-999.0,56,-99.99,,,0.01,weatherlink.com 1.10,2013-11-08 03:05:00,
2013-11-07 22:20:00,44.0,29.0,29.92,NNW,345,1.0,-999.0,55,-99.99,,,0.01,weatherlink.com 1.10,2013-11-08 03:20:00,
2013-11-07 22:35:00,43.5,29.0,29.92,NW,315,0.0,-999.0,56,-99.99,,,0.01,weatherlink.com 1.10,2013-11-08 03:35:00,
2013-11-07 22:50:00,43.1,29.0,29.91,NNW,342,0.0,-999.0,57,-99.99,,,0.01,weatherlink.com 1.10,2013-11-08 03:50:00,
2013-11-07 23:06:00,42.6,29.0,29.92,WSW,242,0.0,-999.0,59,-99.99,,,0.01,weatherlink.com 1.10,2013-11-08 04:06:00,
2013-11-07 23:21:00,42.0,30.0,29.92,NW,305,0.0,-999.0,62,-99.99,,,0.01,weatherlink.com 1.10,2013-11-08 04:21:00,